Temperature
5 6 6 6 6 6 5 5 5 6 6 8 8 8 9 9 9 10 10 10 10 11 11 11 11 10 10 10 10 9 9 9 9 9 9 9 9 9 8 8 8 7 7 7
5 6 5 6 6 6 6 6 6 6 6 7 8 8 8 8 9 9 9 9 9 10 10 10 10 10 10 9 9 9 9 9 8 8 8 8 8 8 8 7 7 7 6 6
4 4 5 4 5 6 6 6 6 6 6 7 7 7 7 7 7 7 8 8 9 9 9 9 9 9 9 9 9 8 8 8 8 8 8 8 7 7 7 7 6 6 5 5
3 4 4 5 6 6 6 6 6 6 6 6 7 7 7 7 7 7 7 7 8 8 8 9 9 9 9 8 8 8 8 8 8 7 7 7 7 7 6 6 5 5 5 4
3 3 3 5 6 6 5 6 5 5 5 5 6 6 6 7 6 6 6 7 7 7 8 8 8 8 8 8 8 8 8 7 7 7 7 7 6 6 6 5 5 4 4 3
3 3 4 5 6 6 6 5 5 5 4 5 5 4 5 6 6 6 6 6 6 7 7 7 8 8 8 8 7 7 7 7 7 7 6 6 6 5 5 4 4 3 3 3
2 3 3 4 5 6 5 4 4 4 4 4 4 4 4 5 5 5 5 6 6 6 6 7 7 7 7 7 7 7 7 6 6 6 6 5 5 4 4 3 3 3 2 2
2 3 3 4 4 4 4 4 4 4 4 3 4 4 4 4 5 5 5 5 5 6 6 6 6 6 6 7 6 6 6 6 6 5 5 4 4 4 3 3 2 2 2 2
2 3 4 4 4 4 4 3 3 3 3 3 3 3 3 4 4 4 4 5 5 5 5 5 5 5 6 6 6 6 5 5 5 5 4 4 3 3 3 2 2 2 1 1
2 2 3 4 4 4 3 3 3 3 2 3 2 2 3 3 3 3 4 4 4 4 4 5 5 5 5 5 5 5 5 4 4 4 4 3 3 2 2 2 2 1 1 1
1 2 3 3 3 3 3 2 2 2 2 2 2 2 2 2 3 3 3 3 3 3 4 4 4 4 4 4 4 4 4 4 4 3 3 3 2 2 2 1 1 1 0 0
1 2 2 2 3 2 2 2 2 2 2 1 1 2 2 2 2 2 3 3 3 3 3 3 3 4 4 4 3 3 3 3 3 3 2 2 2 1 1 1 0 0 -0 -0
3 3 3 2 2 2 1 1 1 1 1 1 1 1 2 2 2 2 2 2 2 3 3 3 3 3 3 3 3 3 2 2 2 2 2 1 1 1 1 0 0 -0 -0 -1
3 2 2 2 1 1 1 1 1 1 1 1 1 1 1 1 1 2 2 2 2 2 2 2 2 2 2 2 2 2 2 2 2 1 1 1 1 1 0 0 -0 -0 -1 -1
2 2 2 1 1 1 0 0 0 0 0 0 1 1 1 1 1 1 1 1 1 1 1 1 2 2 2 1 1 1 1 1 1 1 1 1 0 0 -0 -0 -1 -1 -1 -1
2 1 1 1 0 0 0 -0 -0 -0 -0 -0 0 0 0 0 0 0 0 0 0 1 1 1 1 1 1 1 1 1 1 0 0 0 -0 -0 -0 -0 -1 -1 -1 -1 -1 -1
1 1 0 0 -0 -0 -0 -1 -1 -1 -1 -1 -1 -0 -0 -0 -0 -0 -0 -0 -0 -0 0 0 0 0 0 0 0 -0 -0 -0 -1 -1 -1 -1 -1 -1 -1 -1 -2 -2 -2 -2
1 1 0 0 -0 -1 -1 -1 -1 -1 -1 -1 -1 -1 -1 -1 -1 -1 -1 -1 -1 -1 -1 -1 -0 -0 -0 -0 -0 -1 -1 -1 -1 -1 -1 -1 -2 -2 -2 -2 -2 -2 -2 -2
1 0 0 -0 -0 -1 -1 -1 -1 -1 -1 -1 -1 -2 -1 -1 -1 -1 -1 -1 -1 -1 -1 -1 -1 -1 -1 -1 -1 -1 -1 -1 -2 -2 -2 -2 -2 -2 -2 -2 -2 -2 -3 -3
1 0 -0 -0 -1 -1 -1 -1 -1 -1 -2 -2 -2 -2 -2 -2 -2 -2 -2 -2 -2 -2 -2 -2 -1 -1 -1 -2 -2 -2 -2 -2 -2 -2 -2 -2 -3 -3 -3 -3 -3 -3 -3 -3
0 -0 -0 -1 -1 -1 -1 -2 -2 -2 -2 -2 -2 -2 -2 -2 -2 -2 -2 -2 -2 -2 -2 -2 -2 -2 -2 -2 -2 -2 -2 -2 -2 -3 -3 -3 -3 -3 -3 -3 -4 -4 -4 -4
-0 -0 -1 -1 -1 -1 -2 -2 -2 -2 -2 -2 -2 -2 -2 -2 -3 -3 -3 -3 -3 -3 -3 -3 -3 -2 -2 -2 -3 -3 -3 -3 -3 -3 -3 -3 -4 -4 -4 -4 -4 -4 -4 -4
-0 -1 -1 -1 -1 -2 -2 -2 -2 -2 -2 -2 -3 -3 -3 -3 -3 -3 -3 -3 -3 -3 -3 -3 -3 -3 -3 -3 -3 -3 -3 -3 -4 -4 -4 -4 -4 -4 -4 -4 -4 -4 -5 -5
-1 -1 -1 -1 -2 -2 -2 -2 -2 -3 -3 -3 -3 -3 -3 -3 -3 -3 -3 -4 -4 -4 -3 -3 -4 -4 -4 -4 -4 -4 -4 -4 -4 -4 -4 -4 -5 -5 -5 -5 -5 -5 -5 -5
-1 -1 -1 -2 -2 -2 -2 -2 -2 -3 -3 -3 -3 -3 -3 -3 -3 -3 -4 -4 -4 -4 -4 -4 -4 -4 -4 -4 -4 -4 -5 -5 -5 -5 -5 -5 -5 -5 -5 -5 -6 -6 -6 -6
-1 -1 -2 -2 -2 -2 -2 -3 -3 -3 -3 -3 -3 -3 -3 -3 -4 -4 -4 -4 -4 -4 -4 -4 -4 -5 -5 -5 -5 -5 -5 -5 -5 -5 -5 -6 -6 -6 -6 -6 -6 -6 -6 -6
-1 -2 -2 -2 -2 -2 -3 -3 -3 -3 -3 -3 -3 -3 -4 -4 -4 -4 -4 -4 -4 -4 -5 -5 -5 -5 -5 -5 -5 -5 -6 -6 -6 -6 -6 -6 -6 -6 -6 -6 -6 -7 -7 -7
Wind_Speed
6 6 5 7 9 8 9 9 8 9 10 11 9 8 7 7 6 5 5 5 5 5 5 5 5 5 6 6 7 8 8 8 8 7 7 7 7 7 7 6 6 6 5 4
4 5 6 8 10 10 10 9 10 10 11 9 8 5 6 7 6 6 6 6 6 6 6 6 6 7 7 7 7 8 9 8 7 7 8 8 7 7 7 6 6 6 5 5
3 4 3 7 7 7 6 6 7 9 9 7 7 6 6 5 5 6 7 7 7 6 6 7 7 7 8 8 7 8 8 8 8 8 8 8 8 7 7 6 5 5 5 5
1 2 5 7 2 2 4 4 3 4 5 5 6 6 3 2 3 6 7 7 7 6 6 6 5 6 6 6 8 8 8 8 9 9 8 8 8 8 7 5 5 5 5 5
2 3 7 6 3 1 3 3 2 3 5 6 5 3 3 3 4 5 7 7 7 6 6 5 5 5 5 6 7 8 9 9 9 9 9 9 9 8 6 6 5 5 5 6
3 3 6 5 4 4 1 3 3 4 5 6 5 4 5 8 8 8 8 7 7 6 5 4 4 3 6 7 8 9 10 9 9 9 10 10 9 7 5 5 6 6 5 5
5 5 7 4 4 2 1 4 4 4 5 5 4 5 8 10 9 8 8 8 6 6 5 4 3 3 5 6 8 8 6 7 8 9 9 8 7 6 6 6 6 6 5 5
5 6 8 2 2 2 4 3 4 5 5 6 7 8 8 9 9 8 8 8 6 5 5 4 2 2 4 5 5 5 6 7 7 8 7 7 8 7 7 7 7 6 5 5
8 7 3 2 3 2 1 2 4 4 6 7 8 9 9 9 8 8 8 8 5 4 5 4 2 1 3 3 3 5 6 6 6 7 6 7 8 8 7 7 6 6 6 6
4 5 3 2 1 1 2 4 5 6 7 7 8 9 10 9 8 8 7 6 5 4 4 4 3 2 2 2 4 5 6 6 6 7 6 7 6 7 7 7 7 7 7 7
4 4 2 2 2 4 5 5 6 6 7 7 8 9 9 8 8 7 6 5 3 3 4 4 3 2 1 1 3 4 5 5 5 6 6 7 6 7 8 7 8 8 7 7
6 5 4 5 5 4 5 6 6 7 8 7 7 8 8 8 7 6 6 4 4 4 3 3 3 2 2 0 2 4 4 4 4 5 5 5 5 5 8 9 12 13 12 10
4 3 4 5 4 4 4 6 7 7 8 8 7 6 7 7 6 5 5 4 4 4 4 3 2 2 2 1 1 3 3 3 3 4 5 5 5 5 5 6 9 11 13 14
3 2 2 2 4 5 5 6 6 6 6 6 6 6 6 6 5 5 5 5 4 3 3 2 2 2 2 1 1 1 2 3 4 4 4 5 5 5 5 4 4 5 8 13
3 3 3 4 4 4 4 5 6 6 7 7 6 5 5 5 5 5 5 4 3 2 2 2 2 3 3 1 0 1 1 2 2 3 3 4 4 4 4 5 5 4 3 6
3 2 2 3 4 5 5 5 6 7 6 6 6 6 5 5 4 4 4 3 3 3 3 3 3 3 3 1 0 1 1 2 2 2 3 3 4 4 4 5 5 5 5 5
3 3 3 4 5 6 6 5 6 6 6 6 6 5 5 4 4 4 4 4 2 2 3 3 3 3 2 2 1 1 1 2 2 2 2 3 3 4 4 4 5 5 5 6
6 5 4 4 5 5 6 5 5 5 5 5 5 4 4 4 4 4 4 4 2 2 3 3 3 3 2 2 1 1 1 1 2 2 2 3 3 3 4 4 5 5 4 5
4 4 3 4 4 4 4 5 5 4 4 4 4 4 4 4 4 4 3 3 3 3 4 4 4 3 3 3 2 1 1 2 2 2 2 3 3 3 4 4 5 5 4 4
3 3 3 3 3 3 4 4 4 4 4 3 3 3 4 4 4 3 3 2 2 3 4 4 3 3 3 3 3 2 2 2 2 2 2 2 3 3 3 4 4 4 4 5
3 3 3 3 3 4 3 4 4 4 4 3 3 4 4 4 3 3 3 3 3 3 3 4 3 3 3 3 3 2 2 2 2 2 2 2 3 3 3 3 4 4 4 4
4 3 4 3 4 4 3 3 3 4 4 3 3 3 3 4 3 3 3 3 4 4 3 3 3 4 4 3 1 2 2 2 2 2 2 2 2 3 3 3 4 4 4 4
4 4 4 4 4 4 4 3 4 4 4 4 4 4 4 4 3 3 4 3 3 4 3 3 4 6 6 2 1 2 2 2 2 2 2 3 3 3 3 4 4 4 4 4
3 4 4 3 3 3 4 4 4 4 4 4 4 4 4 3 3 3 3 4 5 5 3 4 6 6 5 1 2 2 2 2 3 3 3 3 3 3 3 3 4 4 4 5
3 3 3 3 4 4 5 4 4 4 4 4 4 4 3 3 3 3 3 3 5 4 3 4 6 5 3 2 2 2 2 3 3 3 2 3 3 3 3 3 4 4 4 4
3 3 4 4 4 4 3 3 3 3 3 4 4 3 3 2 3 3 3 3 4 4 3 3 3 4 2 2 3 3 3 3 4 3 3 3 4 4 4 4 5 4 4 5
2 3 3 3 3 3 3 3 4 4 4 4 4 3 3 3 3 3 3 3 3 3 3 3 2 2 3 3 3 3 3 3 3 3 3 3 4 4 4 5 5 5 5 5
Wind_Direction
242 253 241 244 248 229 222 223 232 254 264 278 291 294 302 308 311 305 289 276 258 249 244 233 223 214 202 194 182 169 165 171 174 165 157 152 151 148 144 142 145 143 138 137
278 268 258 264 257 243 239 237 241 258 270 274 288 301 308 306 304 300 295 285 274 261 250 238 225 217 207 199 189 174 174 178 167 159 158 158 156 151 148 148 148 147 151 152
269 304 328 276 248 227 227 223 219 240 259 288 303 310 303 303 319 314 305 298 288 274 257 246 235 218 209 201 185 177 178 174 168 165 166 165 159 156 160 159 155 157 162 161
251 359 251 248 273 232 229 251 256 262 290 302 291 295 292 294 313 313 315 309 302 289 274 260 240 222 206 186 178 179 178 175 171 168 168 163 162 167 166 160 164 168 171 170
178 249 277 290 303 285 238 266 4 336 333 328 315 325 304 319 324 309 307 303 293 288 278 271 250 217 187 181 179 182 186 184 179 173 169 169 175 177 170 165 170 172 172 172
178 227 252 263 298 307 251 254 359 358 339 335 348 333 302 322 320 311 309 309 305 303 297 287 267 207 181 186 186 196 196 189 179 175 175 180 181 175 167 167 174 171 178 184
203 234 264 265 292 20 178 270 328 331 326 328 307 276 289 307 308 306 306 308 311 311 303 290 276 201 192 194 205 204 183 173 174 177 178 175 169 166 164 166 168 177 187 194
184 217 251 272 99 164 244 299 313 313 309 306 298 297 303 309 309 312 313 313 315 317 312 312 293 198 200 213 207 170 163 169 175 175 173 168 165 166 167 168 176 186 194 204
198 218 234 186 190 208 217 293 295 295 299 298 299 300 305 307 310 312 313 311 312 310 315 321 318 229 213 225 174 159 161 171 172 169 169 166 169 171 171 178 188 197 202 212
239 254 250 252 208 226 275 271 282 285 291 295 295 297 301 304 308 308 308 308 310 310 313 318 323 321 241 204 168 160 168 172 170 171 172 171 175 177 184 192 199 203 209 215
245 267 295 248 238 281 297 300 298 298 296 294 296 297 297 299 303 304 304 309 307 302 301 307 322 332 324 186 163 166 172 174 175 178 178 183 189 195 198 204 203 204 210 208
221 224 217 253 262 284 296 299 300 304 305 303 295 293 297 296 298 301 306 312 317 314 307 310 324 340 353 108 166 170 180 184 184 183 184 188 193 209 218 216 223 225 222 216
209 218 229 256 270 287 293 301 305 301 295 298 298 297 302 304 305 307 312 316 309 308 308 310 315 329 337 333 164 179 191 193 190 189 189 191 194 203 220 227 231 234 233 232
202 176 248 262 288 299 303 307 308 306 304 303 302 303 305 306 311 316 314 311 308 311 318 318 321 324 320 300 185 194 194 199 199 202 198 198 202 206 207 212 224 235 236 237
206 208 237 269 287 300 308 317 319 316 316 316 314 313 313 311 313 316 319 326 332 337 338 338 335 335 338 328 236 223 208 209 207 204 203 202 203 205 210 214 224 231 232 239
225 247 251 271 291 301 308 310 308 304 307 311 315 317 313 310 312 321 331 339 335 329 334 338 333 332 336 334 289 246 240 236 217 208 208 207 207 211 217 221 226 228 230 231
188 232 256 278 287 296 297 294 292 293 299 303 307 313 319 325 330 333 336 341 343 339 337 338 327 329 335 334 313 270 254 247 233 221 217 217 218 220 223 226 231 235 236 233
204 216 231 250 266 282 291 295 295 298 298 300 311 316 316 314 312 314 321 331 343 344 337 323 320 327 332 329 320 302 271 254 238 235 230 225 228 226 229 234 239 243 246 245
202 214 238 256 264 270 278 289 295 297 299 303 307 309 309 309 309 310 314 321 322 318 320 323 331 340 329 318 320 293 279 269 259 251 245 251 247 236 236 239 243 245 247 243
203 219 240 261 271 273 279 288 292 294 294 293 297 304 306 307 309 311 317 313 300 294 305 317 326 325 318 312 315 294 281 273 269 264 252 250 254 252 248 249 250 251 250 248
211 228 248 258 270 276 275 284 293 294 294 290 283 282 287 299 306 306 304 302 306 307 313 320 319 307 302 307 310 305 292 282 276 270 264 260 261 261 259 258 259 260 259 259
212 222 236 250 264 275 281 284 283 286 290 288 284 285 291 299 304 302 282 272 291 309 313 303 300 305 312 315 302 294 292 288 283 280 275 273 270 270 269 266 264 267 266 265
219 227 235 243 252 265 279 277 273 273 275 277 275 275 274 276 279 279 289 288 288 306 308 293 302 310 315 321 300 292 290 287 282 278 276 275 274 273 274 274 271 272 273 273
227 235 243 252 256 258 269 274 272 268 269 272 266 261 261 272 277 261 262 291 302 306 303 306 312 311 317 318 293 289 289 288 286 283 280 278 275 275 277 280 281 278 274 275
229 237 242 249 251 251 257 267 273 272 273 275 273 268 259 248 254 274 277 280 293 303 304 313 319 319 318 295 290 287 286 283 282 284 281 283 280 279 278 277 278 280 280 278
224 234 241 242 245 251 253 254 256 260 264 274 278 269 264 266 268 273 276 278 283 296 299 298 307 312 305 293 288 288 286 294 301 296 285 282 280 280 279 279 279 277 277 277
236 242 250 262 262 252 247 246 252 259 255 257 270 268 262 267 270 270 272 274 279 283 284 288 290 291 292 292 289 287 284 282 282 282 281 277 275 275 276 278 278 277 277 276
Height
1505 1503 1503 1502 1501 1500 1503 1502 1503 1495 1491 1484 1481 1479 1477 1474 1472 1471 1470 1469 1468 1468 1468 1468 1468 1468 1469 1470 1471 1472 1473 1475 1477 1480 1482 1484 1485 1487 1488 1489 1490 1491 1491 1491
1504 1500 1500 1499 1495 1495 1495 1494 1493 1490 1487 1481 1479 1477 1475 1473 1471 1469 1468 1467 1466 1465 1465 1464 1464 1465 1465 1466 1467 1468 1469 1471 1474 1476 1478 1480 1482 1483 1484 1485 1486 1486 1487 1487
1509 1504 1501 1500 1490 1489 1489 1486 1487 1487 1483 1479 1477 1475 1474 1472 1470 1468 1466 1465 1463 1462 1461 1460 1460 1460 1461 1462 1463 1464 1466 1468 1470 1472 1474 1476 1478 1479 1481 1481 1482 1483 1483 1483
1510 1507 1508 1493 1485 1484 1484 1483 1483 1481 1480 1478 1476 1474 1472 1471 1469 1466 1464 1462 1460 1458 1457 1456 1456 1456 1457 1458 1459 1460 1462 1464 1466 1468 1471 1472 1474 1476 1477 1478 1479 1479 1479 1479
1510 1510 1501 1490 1485 1484 1484 1483 1482 1480 1479 1477 1474 1472 1470 1469 1467 1465 1462 1460 1457 1455 1454 1452 1452 1452 1453 1453 1454 1456 1458 1460 1462 1465 1467 1469 1470 1472 1473 1474 1475 1475 1475 1476
1508 1506 1500 1489 1483 1481 1482 1483 1481 1480 1478 1476 1474 1474 1470 1467 1465 1462 1460 1457 1454 1452 1450 1449 1448 1448 1449 1449 1450 1452 1454 1456 1459 1461 1463 1465 1466 1468 1469 1470 1471 1471 1472 1472
1505 1503 1494 1486 1482 1481 1487 1485 1481 1479 1477 1476 1474 1473 1469 1465 1463 1460 1457 1454 1452 1449 1447 1446 1445 1445 1445 1446 1447 1449 1451 1453 1455 1457 1459 1461 1462 1464 1465 1466 1467 1467 1468 1468
1501 1501 1494 1482 1481 1484 1483 1480 1479 1477 1476 1474 1471 1468 1465 1462 1460 1457 1454 1451 1449 1446 1444 1443 1442 1442 1442 1443 1444 1446 1447 1449 1451 1453 1454 1456 1458 1459 1461 1462 1462 1463 1463 1464
1490 1488 1481 1479 1479 1480 1479 1478 1477 1475 1473 1471 1468 1465 1462 1460 1457 1454 1451 1448 1446 1444 1442 1441 1440 1440 1440 1440 1441 1442 1444 1445 1447 1449 1450 1452 1454 1455 1456 1457 1458 1459 1459 1460
1484 1480 1478 1478 1477 1477 1477 1476 1474 1472 1470 1467 1464 1462 1459 1456 1453 1451 1448 1446 1444 1442 1440 1439 1438 1437 1437 1438 1438 1439 1440 1441 1443 1444 1446 1448 1449 1450 1451 1452 1453 1454 1455 1455
1481 1477 1476 1475 1475 1475 1473 1472 1470 1468 1466 1464 1461 1458 1456 1453 1450 1448 1445 1443 1441 1439 1438 1437 1436 1435 1435 1435 1435 1436 1437 1438 1439 1440 1442 1443 1445 1446 1447 1448 1449 1450 1451 1451
1476 1473 1474 1472 1472 1471 1469 1467 1466 1463 1461 1459 1457 1454 1452 1449 1447 1445 1442 1440 1438 1437 1435 1434 1434 1433 1432 1432 1433 1433 1434 1434 1436 1437 1438 1439 1440 1442 1442 1444 1445 1445 1446 1447
1470 1469 1470 1469 1468 1467 1465 1463 1462 1460 1457 1455 1453 1451 1448 1446 1444 1441 1439 1437 1436 1434 1433 1432 1431 1430 1430 1430 1430 1430 1430 1431 1432 1433 1434 1435 1436 1437 1438 1440 1440 1441 1441 1442
1466 1467 1466 1465 1465 1463 1462 1460 1458 1456 1454 1451 1449 1447 1445 1443 1440 1438 1436 1434 1433 1432 1431 1430 1429 1428 1427 1427 1427 1427 1427 1428 1429 1429 1430 1431 1432 1433 1434 1434 1435 1435 1437 1437
1463 1463 1463 1462 1461 1460 1458 1457 1454 1452 1450 1448 1446 1443 1441 1439 1437 1435 1434 1432 1430 1429 1428 1427 1426 1425 1425 1424 1424 1424 1424 1425 1425 1426 1426 1427 1428 1429 1429 1430 1430 1431 1432 1432
1460 1460 1459 1459 1457 1456 1455 1453 1451 1449 1447 1445 1442 1440 1438 1436 1435 1433 1431 1430 1428 1427 1426 1425 1424 1423 1422 1422 1422 1421 1421 1421 1421 1422 1422 1423 1423 1424 1425 1425 1426 1426 1427 1427
1456 1455 1455 1455 1454 1453 1451 1450 1448 1446 1444 1442 1440 1438 1436 1434 1432 1431 1429 1428 1426 1425 1424 1423 1422 1421 1420 1419 1419 1418 1418 1418 1418 1418 1418 1418 1419 1420 1420 1421 1421 1421 1422 1422
1452 1452 1452 1451 1450 1449 1448 1446 1445 1443 1441 1439 1437 1435 1433 1432 1430 1429 1427 1426 1424 1423 1422 1421 1419 1418 1418 1417 1416 1415 1415 1415 1414 1414 1415 1415 1415 1415 1415 1416 1416 1416 1416 1417
1448 1449 1449 1448 1447 1446 1445 1443 1441 1440 1438 1436 1434 1433 1431 1430 1428 1427 1425 1424 1422 1421 1420 1419 1417 1416 1415 1414 1413 1413 1412 1412 1411 1411 1411 1411 1411 1411 1411 1411 1411 1411 1411 1411
1445 1445 1445 1445 1444 1443 1441 1440 1438 1437 1435 1434 1432 1430 1429 1428 1426 1425 1423 1422 1421 1420 1418 1417 1416 1414 1413 1412 1411 1410 1410 1409 1408 1408 1407 1407 1407 1407 1406 1406 1406 1406 1405 1405
1442 1442 1442 1441 1440 1440 1439 1437 1436 1434 1433 1432 1430 1428 1427 1426 1424 1423 1421 1420 1419 1418 1416 1415 1414 1412 1411 1410 1409 1408 1407 1406 1405 1404 1404 1403 1403 1402 1402 1402 1401 1401 1400 1400
1438 1438 1438 1438 1437 1437 1436 1434 1433 1432 1430 1429 1428 1426 1425 1424 1422 1421 1419 1418 1416 1415 1414 1412 1411 1410 1408 1407 1406 1405 1404 1403 1402 1401 1400 1400 1399 1398 1398 1397 1397 1396 1395 1395
1435 1435 1435 1435 1434 1433 1432 1431 1430 1429 1427 1426 1425 1424 1422 1421 1420 1418 1417 1415 1413 1412 1411 1410 1408 1407 1406 1404 1403 1402 1401 1400 1399 1398 1397 1396 1395 1394 1394 1393 1392 1391 1390 1389
1432 1432 1432 1431 1431 1430 1429 1428 1427 1426 1424 1423 1422 1421 1419 1418 1416 1415 1413 1412 1410 1409 1407 1406 1405 1404 1402 1401 1400 1399 1398 1396 1395 1394 1393 1392 1391 1390 1389 1388 1387 1386 1385 1384
1428 1428 1428 1427 1427 1426 1425 1424 1423 1422 1421 1420 1419 1417 1416 1414 1413 1411 1410 1409 1407 1405 1404 1402 1401 1400 1399 1398 1397 1395 1394 1393 1392 1390 1389 1388 1387 1386 1384 1383 1382 1381 1380 1378
1425 1425 1424 1424 1423 1423 1422 1421 1420 1418 1417 1416 1415 1414 1412 1411 1409 1408 1406 1405 1404 1402 1400 1399 1398 1397 1395 1394 1393 1392 1390 1389 1388 1386 1385 1384 1382 1381 1380 1378 1377 1375 1374 1373
1422 1421 1421 1420 1420 1419 1418 1417 1416 1415 1414 1412 1411 1410 1408 1407 1406 1404 1403 1401 1400 1398 1397 1395 1394 1393 1392 1390 1389 1388 1387 1385 1384 1382 1381 1379 1378 1376 1375 1374 1372 1370 1369 1368